Regional Weather Roundup
Issued by NWS Huntsville, AL

Home | Current Version | Previous Version | Text Only | Print | Product List | Glossary On
Versions: 1 2 3 4 5 6 7 8 9 10 11 12 13 14 15 16 17 18 19 20 21 22 23 24 25 26 27 28 29 30 31 32 33 34 35 36 37 38 39 40 41 42 43 44 45 46 47 48 49 50
000
ASUS44 KHUN 310110
RWRHUN

WEATHER ROUNDUP FOR THE TENNESSEE VALLEY
NATIONAL WEATHER SERVICE HUNTSVILLE AL
800 PM CDT SAT AUG 30 2014

ALZ001>004-310200-
NORTHWEST ALABAMA

CITY           SKY/WX    TMP DP  RH WIND       PRES   REMARKS
COURTLAND HCN    N/A     72 N/A N/A SW9         N/A
RUSSELLVILLE     N/A     72 N/A N/A MISG        N/A
SHOALS AIRPORT LGT RAIN  73  70  90 SW5       30.10R
SHOALS TVA RES   N/A     72 N/A N/A MISG        N/A
$$

ALZ005>007-016-310200-
NORTH CENTRAL ALABAMA

CITY           SKY/WX    TMP DP  RH WIND       PRES   REMARKS
CULLMAN AG STN   N/A     72 N/A N/A W6          N/A
DECATUR AP     LGT RAIN  72  71  97 CALM      30.11R
HUNTSVILLE AP  LGT RAIN  73  73 100 CALM      30.11S
HUN NWS/UAH      N/A     71  69  90 NW3         N/A
MERIDIANVILLE  LGT RAIN  70  64  83 CALM      30.13S
VINEMONT AP    LGT RAIN  71  69  96 CALM      30.14R
$$

ALZ008>010-310200-
NORTHEAST ALABAMA

CITY           SKY/WX    TMP DP  RH WIND       PRES   REMARKS
ALBERTVILLE    DRIZZLE   72  72 100 W5        30.15R
FORT PAYNE     RAIN      72  66  83 SW3       30.15R
SCOTTSBORO AP  TSTM      72  72 100 SW6       30.15R
SCOTTSBORO HCN   N/A     72 N/A N/A MISG        N/A
VALLEY HEAD      N/A     72 N/A N/A MISG        N/A
$$

TNZ076-096-097-310200-
SOUTHEASTERN MIDDLE TENNESSEE

CITY           SKY/WX    TMP DP  RH WIND       PRES   REMARKS
FAYETTEVILLE   CLOUDY    70  68  94 SW8       30.14R
TULLAHOMA      CLOUDY    70  66  88 SW14G26   30.15R
WINCHESTER     CLOUDY    72  70  94 W10       30.15R
$$

...SURROUNDING SITES...

CITY           SKY/WX    TMP DP  RH WIND       PRES   REMARKS
ATLANTA        CLOUDY    80  75  84 CALM      30.11R
ANNISTON       CLOUDY    73  71  93 CALM      30.13R
BIRMINGHAM     CLOUDY    74  71  91 CALM      30.13R
CHATTANOOGA    CLOUDY    74  71  91 SW3       30.11R THUNDER
CORINTH        DRIZZLE   73  70  88 S5        30.06R
DALTON         CLOUDY    73  73 100 CALM      30.12R
GADSDEN        CLOUDY    72  66  83 CALM      30.14R
GOLDEN TRNGL   CLOUDY    72  68  88 CALM      30.05S
HALEYVILLE     FAIR      70  70 100 SW3       30.12S
JACKSON TN     LGT RAIN  74  71  91 S8G18     30.04R
LEWISBURG      CLOUDY    71  69  93 S9        30.10R
MEMPHIS        CLOUDY    75  72  90 SE9       30.01S
NASHVILLE      HVY RAIN  74  73  97 W7        30.09R FOG
ROME           RAIN      75  70  84 SW8       30.13R
SAVANNAH       PTCLDY    72  72 100 S3        30.07S
TUPELO         CLOUDY    73  70  90 CALM      30.05F
TUSCALOOSA     CLOUDY    74  72  93 CALM      30.07F
$$

...GULF COAST WEATHER...

CITY           SKY/WX    TMP DP  RH WIND       PRES   REMARKS
GULFPORT       CLOUDY    76  74  93 NE3       30.04S
PASCAGOULA     CLOUDY    76  74  93 CALM      30.06S
MOBILE         CLOUDY    78  74  87 CALM      30.08R
GULF SHORES    CLOUDY    83  77  82 SE6       30.06S HX  92
PENSACOLA      MOCLDY    84  78  82 S9        30.06R HX  95
DESTIN         MOCLDY    87  78  74 S5        30.07S HX 100
PANAMA CITY    MOCLDY    84  77  80 S6        30.09R HX  94
APPALACHICOLA  MOCLDY    83  76  79 SW5       30.08R HX  91
$$



USA.gov is the U.S. government's official web portal to all federal, state and local government web resources and services.